Aviation Digital Data Service (ADDS)

Output produced by METARs form (1805 UTC 19 October 2017)
found at http://www.aviationweather.gov/adds/metars/
 
LGAD 191750Z 00000KT CAVOK 17/14 Q1019
TAF LGAD 191700Z 1918/2003 VRB05KT 9999 FEW018 
     PROB30 2000/2003 5000 BR BKN012
       
LGAL 191750Z VRB02KT CAVOK 15/12 Q1017
TAF LGAL 191700Z 1918/2003 VRB05KT 9999 FEW020
       
LGAV 191750Z 30002KT 9999 FEW025 19/13 Q1019 NOSIG
TAF LGAV 191700Z 1918/2018 VRB03KT 9999 FEW025 
     BECMG 2008/2010 07008KT
       
LGBL 191750Z 00000KT CAVOK 15/11 Q1017
TAF LGBL 191700Z 1918/2003 10010KT 9999 FEW030 
     BECMG 1919/1921 29008KT
       
LGEL 191750Z 00000KT CAVOK 21/15 Q1018
TAF LGEL 191700Z 1918/2018 19010KT 9999 FEW025 
     BECMG 2007/2009 17008KT
       
LGHI 191750Z 00000KT CAVOK 16/13 Q1017
TAF LGHI 191700Z 1918/2003 VRB05KT 9999 FEW018 
     PROB30 2000/2003 5000 BR SCT012
       
LGIO 191750Z /////KT CAVOK 15/12 Q1020
TAF LGIO 191700Z 1918/2003 VRB03KT 9999 FEW020 
     PROB30 1922/2003 5000 BR SCT012
       
LGIR 191750Z 19003KT 9999 FEW025 19/16 Q1017 NOSIG
TAF LGIR 191700Z 1918/2018 35005KT 9999 FEW020 
     BECMG 1919/1921 17008KT 
     BECMG 2007/2009 35008KT
       
LGKC 191450Z 25009KT 9999 FEW008 21/17 Q1019
TAF LGKC 191700Z 1918/2003 27010KT 9999 FEW009 
     PROB30 2000/2003 5000 BR FEW009 SCT012
       
LGKF 191750Z 00000KT 9999 FEW016 19/18 Q1019
TAF LGKF 191700Z 1918/2003 VRB05KT 9999 FEW016 
     PROB30 2000/2003 5000 BR SCT012
       
LGKL 191750Z 36006KT 9999 FEW030 19/15 Q1018
TAF LGKL 191700Z 1918/2003 35006KT 9999 FEW025 
     PROB30 2000/2003 5000 BR SCT012
       
LGKO 191750Z 32006KT 9999 FEW015 18/15 Q1018
TAF LGKO 191700Z 1918/2018 29010KT 9999 FEW025 
     PROB30 2000/2006 5000 BR SCT015
       
LGKP 191750Z 31004KT CAVOK 19/15 Q1018
TAF LGKP 191700Z 1918/2003 30015KT 9999 FEW018
       
LGKR 191750Z 27002KT 9999 FEW025 19/18 Q1019 NOSIG
TAF LGKR 191700Z 1918/2018 VRB03KT 9999 SCT025 
     PROB40 2000/2005 5000 BR SCT008
       
LGKV 191750Z 00000KT CAVOK 16/14 Q1017
TAF LGKV 191700Z 1918/2003 VRB05KT 9999 FEW020
       
LGKZ 191750Z 00000KT CAVOK 15/02 Q1019
LGLM 191750Z 00000KT CAVOK 14/12 Q1017
TAF LGLM 191700Z 1918/2003 VRB05KT 9999 FEW018
       
TAF LGLR 191700Z 1918/2003 VRB03KT 9999 FEW030
       
LGMK 191750Z 00000KT CAVOK 18/15 Q1018
TAF LGMK 191700Z 1918/2003 31005KT 9999 FEW018
       
LGMT 191750Z VRB03KT CAVOK 17/09 Q1017
TAF LGMT 191700Z 1918/2003 VRB05KT 9999 FEW018 
     PROB30 2000/2003 5000 BR SCT012
       
LGNX 191350Z 34006KT 9999 FEW030 22/14 Q1018
LGPA 191800Z AUTO VRB03KT //// // ////// 17/10 Q1018 RE//
LGPZ 191750Z 28008KT 9999 FEW020 19/17 Q1020
TAF LGPZ 191700Z 1918/2018 27012KT 9999 FEW020 
     BECMG 1922/1924 05006KT 
     PROB40 
     TEMPO 2000/2006 6000 SCT010 
     BECMG 2010/2012 28010KT
       
LGRP 191750Z 23006KT CAVOK 20/15 Q1016 NOSIG
TAF LGRP 191700Z 1918/2018 26010KT 9999 FEW020 
     PROB30 2000/2005 5000 BR SCT015
       
LGRX 191750Z 18003KT 9999 FEW010 17/16 Q1019
TAF LGRX 191700Z 1918/2003 27008KT 8000 FEW015 
     BECMG 1919/1921 VRB03KT 
     PROB30 2001/2003 5000 BR FEW010
       
LGSA 191750Z 00000KT CAVOK 18/15 Q1019
TAF LGSA 191700Z 1918/2018 27010KT 9999 FEW025
       
LGSK 191750Z 00000KT CAVOK 16/13 Q1017
TAF LGSK 191700Z 1918/2003 VRB03KT 9999 FEW020
       
LGSM 191750Z 00000KT CAVOK 20/16 Q1018
TAF LGSM 191700Z 1918/2003 VRB05KT 9999 FEW020 
     PROB30 2000/2003 5000 BR SCT012
       
LGSO 191750Z AUTO 21004KT //// // ////// 19/13 Q1018 RE//
LGSR 191750Z 26004KT CAVOK 18/15 Q1018
TAF LGSR 191700Z 1918/2018 30010KT 9999 FEW025 
     PROB30 
     TEMPO 2000/2006 6000 FEW010
       
TAF LGST 191700Z 1918/2003 32007KT 9999 FEW020
       
TAF LGSY 191700Z 1918/2003 35007KT 9999 FEW025
       
TAF LGTG 191700Z 1918/2003 25008KT 9999 FEW030
       
TAF LGTL 191700Z 1918/2003 35008KT 9999 FEW025
       
LGTS 191750Z 14004KT CAVOK 20/07 Q1017 NOSIG
TAF LGTS 191700Z 1918/2018 VRB03KT CAVOK
       
LGZA 191750Z 00000KT 9999 FEW020 18/16 Q1019
TAF LGZA 191700Z 1918/2003 VRB05KT 9999 FEW015 
     PROB30 2000/2003 5000 BR SCT012
       
LGPZ 191750Z 28008KT 9999 FEW020 19/17 Q1020
TAF LGPZ 191700Z 1918/2018 27012KT 9999 FEW020 
     BECMG 1922/1924 05006KT 
     PROB40 
     TEMPO 2000/2006 6000 SCT010 
     BECMG 2010/2012 28010KT
       
LGKC 191450Z 25009KT 9999 FEW008 21/17 Q1019
TAF LGKC 191700Z 1918/2003 27010KT 9999 FEW009 
     PROB30 2000/2003 5000 BR FEW009 SCT012
       
LGKF 191750Z 00000KT 9999 FEW016 19/18 Q1019
TAF LGKF 191700Z 1918/2003 VRB05KT 9999 FEW016 
     PROB30 2000/2003 5000 BR SCT012
       
LGKL 191750Z 36006KT 9999 FEW030 19/15 Q1018
TAF LGKL 191700Z 1918/2003 35006KT 9999 FEW025 
     PROB30 2000/2003 5000 BR SCT012
       
LGKO 191750Z 32006KT 9999 FEW015 18/15 Q1018
TAF LGKO 191700Z 1918/2018 29010KT 9999 FEW025 
     PROB30 2000/2006 5000 BR SCT015
       
LGKP 191750Z 31004KT CAVOK 19/15 Q1018
TAF LGKP 191700Z 1918/2003 30015KT 9999 FEW018
       
LGKR 191750Z 27002KT 9999 FEW025 19/18 Q1019 NOSIG
TAF LGKR 191700Z 1918/2018 VRB03KT 9999 SCT025 
     PROB40 2000/2005 5000 BR SCT008
       
LGKV 191750Z 00000KT CAVOK 16/14 Q1017
TAF LGKV 191700Z 1918/2003 VRB05KT 9999 FEW020
       
LGKZ 191750Z 00000KT CAVOK 15/02 Q1019
LGAD 191750Z 00000KT CAVOK 17/14 Q1019
TAF LGAD 191700Z 1918/2003 VRB05KT 9999 FEW018 
     PROB30 2000/2003 5000 BR BKN012
       
LGRX 191750Z 18003KT 9999 FEW010 17/16 Q1019
TAF LGRX 191700Z 1918/2003 27008KT 8000 FEW015 
     BECMG 1919/1921 VRB03KT 
     PROB30 2001/2003 5000 BR FEW010
       
LGHI 191750Z 00000KT CAVOK 16/13 Q1017
TAF LGHI 191700Z 1918/2003 VRB05KT 9999 FEW018 
     PROB30 2000/2003 5000 BR SCT012
       
LGRP 191750Z 23006KT CAVOK 20/15 Q1016 NOSIG
TAF LGRP 191700Z 1918/2018 26010KT 9999 FEW020 
     PROB30 2000/2005 5000 BR SCT015
       
LGAL 191750Z VRB02KT CAVOK 15/12 Q1017
TAF LGAL 191700Z 1918/2003 VRB05KT 9999 FEW020
       
LGEL 191750Z 00000KT CAVOK 21/15 Q1018
TAF LGEL 191700Z 1918/2018 19010KT 9999 FEW025 
     BECMG 2007/2009 17008KT
       
LGAV 191750Z 30002KT 9999 FEW025 19/13 Q1019 NOSIG
TAF LGAV 191700Z 1918/2018 VRB03KT 9999 FEW025 
     BECMG 2008/2010 07008KT
       
LGKZ 191750Z 00000KT CAVOK 15/02 Q1019
LGIO 191750Z /////KT CAVOK 15/12 Q1020
TAF LGIO 191700Z 1918/2003 VRB03KT 9999 FEW020 
     PROB30 1922/2003 5000 BR SCT012
       
LGKR 191750Z 27002KT 9999 FEW025 19/18 Q1019 NOSIG
TAF LGKR 191700Z 1918/2018 VRB03KT 9999 SCT025 
     PROB40 2000/2005 5000 BR SCT008
       
LGKL 191750Z 36006KT 9999 FEW030 19/15 Q1018
TAF LGKL 191700Z 1918/2003 35006KT 9999 FEW025 
     PROB30 2000/2003 5000 BR SCT012
       
LGKP 191750Z 31004KT CAVOK 19/15 Q1018
TAF LGKP 191700Z 1918/2003 30015KT 9999 FEW018
       
TAF LGTL 191700Z 1918/2003 35008KT 9999 FEW025
       
LGKF 191750Z 00000KT 9999 FEW016 19/18 Q1019
TAF LGKF 191700Z 1918/2003 VRB05KT 9999 FEW016 
     PROB30 2000/2003 5000 BR SCT012
       
LGKC 191450Z 25009KT 9999 FEW008 21/17 Q1019
TAF LGKC 191700Z 1918/2003 27010KT 9999 FEW009 
     PROB30 2000/2003 5000 BR FEW009 SCT012
       
LGKO 191750Z 32006KT 9999 FEW015 18/15 Q1018
TAF LGKO 191700Z 1918/2018 29010KT 9999 FEW025 
     PROB30 2000/2006 5000 BR SCT015
       
TAF LGLR 191700Z 1918/2003 VRB03KT 9999 FEW030
       
LGLM 191750Z 00000KT CAVOK 14/12 Q1017
TAF LGLM 191700Z 1918/2003 VRB05KT 9999 FEW018
       
LGTS 191750Z 14004KT CAVOK 20/07 Q1017 NOSIG
TAF LGTS 191700Z 1918/2018 VRB03KT CAVOK
       
LGKV 191750Z 00000KT CAVOK 16/14 Q1017
TAF LGKV 191700Z 1918/2003 VRB05KT 9999 FEW020
       
LGMK 191750Z 00000KT CAVOK 18/15 Q1018
TAF LGMK 191700Z 1918/2003 31005KT 9999 FEW018
       
LGMT 191750Z VRB03KT CAVOK 17/09 Q1017
TAF LGMT 191700Z 1918/2003 VRB05KT 9999 FEW018 
     PROB30 2000/2003 5000 BR SCT012
       
LGBL 191750Z 00000KT CAVOK 15/11 Q1017
TAF LGBL 191700Z 1918/2003 10010KT 9999 FEW030 
     BECMG 1919/1921 29008KT
       
LGIR 191750Z 19003KT 9999 FEW025 19/16 Q1017 NOSIG
TAF LGIR 191700Z 1918/2018 35005KT 9999 FEW020 
     BECMG 1919/1921 17008KT 
     BECMG 2007/2009 35008KT
       
LGAD 191750Z 00000KT CAVOK 17/14 Q1019
TAF LGAD 191700Z 1918/2003 VRB05KT 9999 FEW018 
     PROB30 2000/2003 5000 BR BKN012
       
LGAL 191750Z VRB02KT CAVOK 15/12 Q1017
TAF LGAL 191700Z 1918/2003 VRB05KT 9999 FEW020
       
LGAV 191750Z 30002KT 9999 FEW025 19/13 Q1019 NOSIG
TAF LGAV 191700Z 1918/2018 VRB03KT 9999 FEW025 
     BECMG 2008/2010 07008KT
       
LGBL 191750Z 00000KT CAVOK 15/11 Q1017
TAF LGBL 191700Z 1918/2003 10010KT 9999 FEW030 
     BECMG 1919/1921 29008KT
       
LGEL 191750Z 00000KT CAVOK 21/15 Q1018
TAF LGEL 191700Z 1918/2018 19010KT 9999 FEW025 
     BECMG 2007/2009 17008KT
       
LGHI 191750Z 00000KT CAVOK 16/13 Q1017
TAF LGHI 191700Z 1918/2003 VRB05KT 9999 FEW018 
     PROB30 2000/2003 5000 BR SCT012
       
LGIO 191750Z /////KT CAVOK 15/12 Q1020
TAF LGIO 191700Z 1918/2003 VRB03KT 9999 FEW020 
     PROB30 1922/2003 5000 BR SCT012
       
LGIR 191750Z 19003KT 9999 FEW025 19/16 Q1017 NOSIG
TAF LGIR 191700Z 1918/2018 35005KT 9999 FEW020 
     BECMG 1919/1921 17008KT 
     BECMG 2007/2009 35008KT
       
LGKC 191450Z 25009KT 9999 FEW008 21/17 Q1019
TAF LGKC 191700Z 1918/2003 27010KT 9999 FEW009 
     PROB30 2000/2003 5000 BR FEW009 SCT012
       
LGKF 191750Z 00000KT 9999 FEW016 19/18 Q1019
TAF LGKF 191700Z 1918/2003 VRB05KT 9999 FEW016 
     PROB30 2000/2003 5000 BR SCT012
       
LGKL 191750Z 36006KT 9999 FEW030 19/15 Q1018
TAF LGKL 191700Z 1918/2003 35006KT 9999 FEW025 
     PROB30 2000/2003 5000 BR SCT012
       
LGKO 191750Z 32006KT 9999 FEW015 18/15 Q1018
TAF LGKO 191700Z 1918/2018 29010KT 9999 FEW025 
     PROB30 2000/2006 5000 BR SCT015
       
LGKP 191750Z 31004KT CAVOK 19/15 Q1018
TAF LGKP 191700Z 1918/2003 30015KT 9999 FEW018
       
LGKR 191750Z 27002KT 9999 FEW025 19/18 Q1019 NOSIG
TAF LGKR 191700Z 1918/2018 VRB03KT 9999 SCT025 
     PROB40 2000/2005 5000 BR SCT008
       
LGKV 191750Z 00000KT CAVOK 16/14 Q1017
TAF LGKV 191700Z 1918/2003 VRB05KT 9999 FEW020
       
LGKZ 191750Z 00000KT CAVOK 15/02 Q1019
LGLM 191750Z 00000KT CAVOK 14/12 Q1017
TAF LGLM 191700Z 1918/2003 VRB05KT 9999 FEW018
       
TAF LGLR 191700Z 1918/2003 VRB03KT 9999 FEW030
       
LGMK 191750Z 00000KT CAVOK 18/15 Q1018
TAF LGMK 191700Z 1918/2003 31005KT 9999 FEW018
       
LGMT 191750Z VRB03KT CAVOK 17/09 Q1017
TAF LGMT 191700Z 1918/2003 VRB05KT 9999 FEW018 
     PROB30 2000/2003 5000 BR SCT012
       
LGNX 191350Z 34006KT 9999 FEW030 22/14 Q1018
LGPA 191800Z AUTO VRB03KT //// // ////// 17/10 Q1018 RE//
LGPZ 191750Z 28008KT 9999 FEW020 19/17 Q1020
TAF LGPZ 191700Z 1918/2018 27012KT 9999 FEW020 
     BECMG 1922/1924 05006KT 
     PROB40 
     TEMPO 2000/2006 6000 SCT010 
     BECMG 2010/2012 28010KT
       
LGRP 191750Z 23006KT CAVOK 20/15 Q1016 NOSIG
TAF LGRP 191700Z 1918/2018 26010KT 9999 FEW020 
     PROB30 2000/2005 5000 BR SCT015
       
LGRX 191750Z 18003KT 9999 FEW010 17/16 Q1019
TAF LGRX 191700Z 1918/2003 27008KT 8000 FEW015 
     BECMG 1919/1921 VRB03KT 
     PROB30 2001/2003 5000 BR FEW010
       
LGSA 191750Z 00000KT CAVOK 18/15 Q1019
TAF LGSA 191700Z 1918/2018 27010KT 9999 FEW025
       
LGSK 191750Z 00000KT CAVOK 16/13 Q1017
TAF LGSK 191700Z 1918/2003 VRB03KT 9999 FEW020
       
LGSM 191750Z 00000KT CAVOK 20/16 Q1018
TAF LGSM 191700Z 1918/2003 VRB05KT 9999 FEW020 
     PROB30 2000/2003 5000 BR SCT012
       
LGSO 191750Z AUTO 21004KT //// // ////// 19/13 Q1018 RE//
LGSR 191750Z 26004KT CAVOK 18/15 Q1018
TAF LGSR 191700Z 1918/2018 30010KT 9999 FEW025 
     PROB30 
     TEMPO 2000/2006 6000 FEW010
       
TAF LGST 191700Z 1918/2003 32007KT 9999 FEW020
       
TAF LGSY 191700Z 1918/2003 35007KT 9999 FEW025
       
TAF LGTG 191700Z 1918/2003 25008KT 9999 FEW030
       
TAF LGTL 191700Z 1918/2003 35008KT 9999 FEW025
       
LGTS 191750Z 14004KT CAVOK 20/07 Q1017 NOSIG
TAF LGTS 191700Z 1918/2018 VRB03KT CAVOK
       
LGZA 191750Z 00000KT 9999 FEW020 18/16 Q1019
TAF LGZA 191700Z 1918/2003 VRB05KT 9999 FEW015 
     PROB30 2000/2003 5000 BR SCT012
       
LGAD 191750Z 00000KT CAVOK 17/14 Q1019
TAF LGAD 191700Z 1918/2003 VRB05KT 9999 FEW018 
     PROB30 2000/2003 5000 BR BKN012
       
LGAL 191750Z VRB02KT CAVOK 15/12 Q1017
TAF LGAL 191700Z 1918/2003 VRB05KT 9999 FEW020
       
LGAV 191750Z 30002KT 9999 FEW025 19/13 Q1019 NOSIG
TAF LGAV 191700Z 1918/2018 VRB03KT 9999 FEW025 
     BECMG 2008/2010 07008KT
       
LGBL 191750Z 00000KT CAVOK 15/11 Q1017
TAF LGBL 191700Z 1918/2003 10010KT 9999 FEW030 
     BECMG 1919/1921 29008KT
       
LGEL 191750Z 00000KT CAVOK 21/15 Q1018
TAF LGEL 191700Z 1918/2018 19010KT 9999 FEW025 
     BECMG 2007/2009 17008KT
       
LGHI 191750Z 00000KT CAVOK 16/13 Q1017
TAF LGHI 191700Z 1918/2003 VRB05KT 9999 FEW018 
     PROB30 2000/2003 5000 BR SCT012
       
LGIO 191750Z /////KT CAVOK 15/12 Q1020
TAF LGIO 191700Z 1918/2003 VRB03KT 9999 FEW020 
     PROB30 1922/2003 5000 BR SCT012
       
LGIR 191750Z 19003KT 9999 FEW025 19/16 Q1017 NOSIG
TAF LGIR 191700Z 1918/2018 35005KT 9999 FEW020 
     BECMG 1919/1921 17008KT 
     BECMG 2007/2009 35008KT
       
LGKC 191450Z 25009KT 9999 FEW008 21/17 Q1019
TAF LGKC 191700Z 1918/2003 27010KT 9999 FEW009 
     PROB30 2000/2003 5000 BR FEW009 SCT012
       
LGKF 191750Z 00000KT 9999 FEW016 19/18 Q1019
TAF LGKF 191700Z 1918/2003 VRB05KT 9999 FEW016 
     PROB30 2000/2003 5000 BR SCT012
       
LGKL 191750Z 36006KT 9999 FEW030 19/15 Q1018
TAF LGKL 191700Z 1918/2003 35006KT 9999 FEW025 
     PROB30 2000/2003 5000 BR SCT012
       
LGKO 191750Z 32006KT 9999 FEW015 18/15 Q1018
TAF LGKO 191700Z 1918/2018 29010KT 9999 FEW025 
     PROB30 2000/2006 5000 BR SCT015
       
LGKP 191750Z 31004KT CAVOK 19/15 Q1018
TAF LGKP 191700Z 1918/2003 30015KT 9999 FEW018
       
LGKR 191750Z 27002KT 9999 FEW025 19/18 Q1019 NOSIG
TAF LGKR 191700Z 1918/2018 VRB03KT 9999 SCT025 
     PROB40 2000/2005 5000 BR SCT008
       
LGKV 191750Z 00000KT CAVOK 16/14 Q1017
TAF LGKV 191700Z 1918/2003 VRB05KT 9999 FEW020
       
LGKZ 191750Z 00000KT CAVOK 15/02 Q1019
LGLM 191750Z 00000KT CAVOK 14/12 Q1017
TAF LGLM 191700Z 1918/2003 VRB05KT 9999 FEW018
       
TAF LGLR 191700Z 1918/2003 VRB03KT 9999 FEW030
       
LGMK 191750Z 00000KT CAVOK 18/15 Q1018
TAF LGMK 191700Z 1918/2003 31005KT 9999 FEW018
       
LGMT 191750Z VRB03KT CAVOK 17/09 Q1017
TAF LGMT 191700Z 1918/2003 VRB05KT 9999 FEW018 
     PROB30 2000/2003 5000 BR SCT012
       
LGNX 191350Z 34006KT 9999 FEW030 22/14 Q1018
LGPA 191800Z AUTO VRB03KT //// // ////// 17/10 Q1018 RE//
LGPZ 191750Z 28008KT 9999 FEW020 19/17 Q1020
TAF LGPZ 191700Z 1918/2018 27012KT 9999 FEW020 
     BECMG 1922/1924 05006KT 
     PROB40 
     TEMPO 2000/2006 6000 SCT010 
     BECMG 2010/2012 28010KT
       
LGRP 191750Z 23006KT CAVOK 20/15 Q1016 NOSIG
TAF LGRP 191700Z 1918/2018 26010KT 9999 FEW020 
     PROB30 2000/2005 5000 BR SCT015
       
LGRX 191750Z 18003KT 9999 FEW010 17/16 Q1019
TAF LGRX 191700Z 1918/2003 27008KT 8000 FEW015 
     BECMG 1919/1921 VRB03KT 
     PROB30 2001/2003 5000 BR FEW010
       
LGSA 191750Z 00000KT CAVOK 18/15 Q1019
TAF LGSA 191700Z 1918/2018 27010KT 9999 FEW025
       
LGSK 191750Z 00000KT CAVOK 16/13 Q1017
TAF LGSK 191700Z 1918/2003 VRB03KT 9999 FEW020
       
LGSM 191750Z 00000KT CAVOK 20/16 Q1018
TAF LGSM 191700Z 1918/2003 VRB05KT 9999 FEW020 
     PROB30 2000/2003 5000 BR SCT012
       
LGSO 191750Z AUTO 21004KT //// // ////// 19/13 Q1018 RE//
LGSR 191750Z 26004KT CAVOK 18/15 Q1018
TAF LGSR 191700Z 1918/2018 30010KT 9999 FEW025 
     PROB30 
     TEMPO 2000/2006 6000 FEW010
       
TAF LGST 191700Z 1918/2003 32007KT 9999 FEW020
       
TAF LGSY 191700Z 1918/2003 35007KT 9999 FEW025
       
TAF LGTG 191700Z 1918/2003 25008KT 9999 FEW030
       
TAF LGTL 191700Z 1918/2003 35008KT 9999 FEW025
       
LGTS 191750Z 14004KT CAVOK 20/07 Q1017 NOSIG
TAF LGTS 191700Z 1918/2018 VRB03KT CAVOK
       
LGZA 191750Z 00000KT 9999 FEW020 18/16 Q1019
TAF LGZA 191700Z 1918/2003 VRB05KT 9999 FEW015 
     PROB30 2000/2003 5000 BR SCT012
       
LGSM 191750Z 00000KT CAVOK 20/16 Q1018
TAF LGSM 191700Z 1918/2003 VRB05KT 9999 FEW020 
     PROB30 2000/2003 5000 BR SCT012
       
LGSR 191750Z 26004KT CAVOK 18/15 Q1018
TAF LGSR 191700Z 1918/2018 30010KT 9999 FEW025 
     PROB30 
     TEMPO 2000/2006 6000 FEW010
       
LGSK 191750Z 00000KT CAVOK 16/13 Q1017
TAF LGSK 191700Z 1918/2003 VRB03KT 9999 FEW020
       
TAF LGSY 191700Z 1918/2003 35007KT 9999 FEW025
       
LGSA 191750Z 00000KT CAVOK 18/15 Q1019
TAF LGSA 191700Z 1918/2018 27010KT 9999 FEW025
       
LGSO 191750Z AUTO 21004KT //// // ////// 19/13 Q1018 RE//
TAF LGTG 191700Z 1918/2003 25008KT 9999 FEW030
       
LGAD 191750Z 00000KT CAVOK 17/14 Q1019
TAF LGAD 191700Z 1918/2003 VRB05KT 9999 FEW018 
     PROB30 2000/2003 5000 BR BKN012
       
LGAL 191750Z VRB02KT CAVOK 15/12 Q1017
TAF LGAL 191700Z 1918/2003 VRB05KT 9999 FEW020
       
LGAV 191750Z 30002KT 9999 FEW025 19/13 Q1019 NOSIG
TAF LGAV 191700Z 1918/2018 VRB03KT 9999 FEW025 
     BECMG 2008/2010 07008KT
       
LGBL 191750Z 00000KT CAVOK 15/11 Q1017
TAF LGBL 191700Z 1918/2003 10010KT 9999 FEW030 
     BECMG 1919/1921 29008KT
       
LGEL 191750Z 00000KT CAVOK 21/15 Q1018
TAF LGEL 191700Z 1918/2018 19010KT 9999 FEW025 
     BECMG 2007/2009 17008KT
       
LGHI 191750Z 00000KT CAVOK 16/13 Q1017
TAF LGHI 191700Z 1918/2003 VRB05KT 9999 FEW018 
     PROB30 2000/2003 5000 BR SCT012
       
LGIO 191750Z /////KT CAVOK 15/12 Q1020
TAF LGIO 191700Z 1918/2003 VRB03KT 9999 FEW020 
     PROB30 1922/2003 5000 BR SCT012
       
LGIR 191750Z 19003KT 9999 FEW025 19/16 Q1017 NOSIG
TAF LGIR 191700Z 1918/2018 35005KT 9999 FEW020 
     BECMG 1919/1921 17008KT 
     BECMG 2007/2009 35008KT
       
LGKC 191450Z 25009KT 9999 FEW008 21/17 Q1019
TAF LGKC 191700Z 1918/2003 27010KT 9999 FEW009 
     PROB30 2000/2003 5000 BR FEW009 SCT012
       
LGKF 191750Z 00000KT 9999 FEW016 19/18 Q1019
TAF LGKF 191700Z 1918/2003 VRB05KT 9999 FEW016 
     PROB30 2000/2003 5000 BR SCT012
       
LGKL 191750Z 36006KT 9999 FEW030 19/15 Q1018
TAF LGKL 191700Z 1918/2003 35006KT 9999 FEW025 
     PROB30 2000/2003 5000 BR SCT012
       
LGKO 191750Z 32006KT 9999 FEW015 18/15 Q1018
TAF LGKO 191700Z 1918/2018 29010KT 9999 FEW025 
     PROB30 2000/2006 5000 BR SCT015
       
LGKP 191750Z 31004KT CAVOK 19/15 Q1018
TAF LGKP 191700Z 1918/2003 30015KT 9999 FEW018
       
LGKR 191750Z 27002KT 9999 FEW025 19/18 Q1019 NOSIG
TAF LGKR 191700Z 1918/2018 VRB03KT 9999 SCT025 
     PROB40 2000/2005 5000 BR SCT008
       
LGKV 191750Z 00000KT CAVOK 16/14 Q1017
TAF LGKV 191700Z 1918/2003 VRB05KT 9999 FEW020
       
LGKZ 191750Z 00000KT CAVOK 15/02 Q1019
LGLM 191750Z 00000KT CAVOK 14/12 Q1017
TAF LGLM 191700Z 1918/2003 VRB05KT 9999 FEW018
       
TAF LGLR 191700Z 1918/2003 VRB03KT 9999 FEW030
       
LGMK 191750Z 00000KT CAVOK 18/15 Q1018
TAF LGMK 191700Z 1918/2003 31005KT 9999 FEW018
       
LGMT 191750Z VRB03KT CAVOK 17/09 Q1017
TAF LGMT 191700Z 1918/2003 VRB05KT 9999 FEW018 
     PROB30 2000/2003 5000 BR SCT012
       
LGNX 191350Z 34006KT 9999 FEW030 22/14 Q1018
LGPA 191800Z AUTO VRB03KT //// // ////// 17/10 Q1018 RE//
LGPZ 191750Z 28008KT 9999 FEW020 19/17 Q1020
TAF LGPZ 191700Z 1918/2018 27012KT 9999 FEW020 
     BECMG 1922/1924 05006KT 
     PROB40 
     TEMPO 2000/2006 6000 SCT010 
     BECMG 2010/2012 28010KT
       
LGRP 191750Z 23006KT CAVOK 20/15 Q1016 NOSIG
TAF LGRP 191700Z 1918/2018 26010KT 9999 FEW020 
     PROB30 2000/2005 5000 BR SCT015
       
LGRX 191750Z 18003KT 9999 FEW010 17/16 Q1019
TAF LGRX 191700Z 1918/2003 27008KT 8000 FEW015 
     BECMG 1919/1921 VRB03KT 
     PROB30 2001/2003 5000 BR FEW010
       
LGSA 191750Z 00000KT CAVOK 18/15 Q1019
TAF LGSA 191700Z 1918/2018 27010KT 9999 FEW025
       
LGSK 191750Z 00000KT CAVOK 16/13 Q1017
TAF LGSK 191700Z 1918/2003 VRB03KT 9999 FEW020
       
LGSM 191750Z 00000KT CAVOK 20/16 Q1018
TAF LGSM 191700Z 1918/2003 VRB05KT 9999 FEW020 
     PROB30 2000/2003 5000 BR SCT012
       
LGSO 191750Z AUTO 21004KT //// // ////// 19/13 Q1018 RE//
LGSR 191750Z 26004KT CAVOK 18/15 Q1018
TAF LGSR 191700Z 1918/2018 30010KT 9999 FEW025 
     PROB30 
     TEMPO 2000/2006 6000 FEW010
       
TAF LGST 191700Z 1918/2003 32007KT 9999 FEW020
       
TAF LGSY 191700Z 1918/2003 35007KT 9999 FEW025
       
TAF LGTG 191700Z 1918/2003 25008KT 9999 FEW030
       
TAF LGTL 191700Z 1918/2003 35008KT 9999 FEW025
       
LGTS 191750Z 14004KT CAVOK 20/07 Q1017 NOSIG
TAF LGTS 191700Z 1918/2018 VRB03KT CAVOK
       
LGZA 191750Z 00000KT 9999 FEW020 18/16 Q1019
TAF LGZA 191700Z 1918/2003 VRB05KT 9999 FEW015 
     PROB30 2000/2003 5000 BR SCT012
       
LGZA 191750Z 00000KT 9999 FEW020 18/16 Q1019
TAF LGZA 191700Z 1918/2003 VRB05KT 9999 FEW015 
     PROB30 2000/2003 5000 BR SCT012